Regional Weather Roundup
Issued by NWS Glasgow, MT

Home | Current Version | Previous Version | Text Only | Print | Product List | Glossary On
Versions: 1 2 3 4 5 6 7 8 9 10 11 12 13 14 15 16 17 18 19 20 21 22 23 24 25 26 27 28 29 30 31 32 33 34 35 36 37 38 39 40 41 42 43 44 45 46 47 48 49 50
581
ASUS45 KGGW 281215
RWRGGW
HOURLY REGIONAL WEATHER ROUNDUP FOR NORTHEAST MONTANA
NATIONAL WEATHER SERVICE GLASGOW MONTANA
600 AM MDT FRI APR 28 2017

NOTE: "FAIR" INDICATES FEW OR NO CLOUDS BELOW 12,000 FEET WITH NO
SIGNIFICANT WEATHER AND/OR OBSTRUCTIONS TO VISISBILITY.

NORTHEAST MONTANA


CITY           SKY/WX    TMP DP  RH WIND       PRES   REMARKS
GLASGOW        CLOUDY    40  17  39 E12       29.92R
6HR MIN TEMP:  40; 6HR MAX TEMP:  43;

PLENTYWOOD       N/A     32  22  66 E3          N/A
WOLF POINT     CLOUDY    29  19  66 E6        29.95R
JORDAN           N/A     35  26  69 N8        29.88R
WINNETT          N/A     40  37  89 NW8         N/A
SIDNEY         CLEAR     28  21  75 CALM      29.96R
GLENDIVE       CLEAR     28  21  75 NE6       29.93R
MALTA            N/A     43  32  65 E8          N/A
SCOBEY           N/A     32  17  54 CALM      29.94R

FORT PECK REPORTS


CITY           SKY/WX    TMP DP  RH WIND       PRES   REMARKS
FORT PECK        N/A     36  20  52 NE12        N/A
THE PINES        N/A     39  24  55 CALM        N/A

SOUTHEAST MONTANA


CITY           SKY/WX    TMP DP  RH WIND       PRES   REMARKS
BILLINGS       LGT RAIN  38  36  92 N13       29.85R
MILES CITY     CLOUDY    34  25  69 NE12      29.88R
BAKER          PTCLDY    25  20  81 SE5       29.89R
LIVINGSTON     CLOUDY    36  31  82 NW8       29.87R

CENTRAL MONTANA


CITY           SKY/WX    TMP DP  RH WIND       PRES   REMARKS
HAVRE          MOCLDY    28  27  96 CALM      29.95R
LEWISTOWN      CLOUDY    36  34  92 NW7       29.90R
GREAT FALLS    CLOUDY    36  33  89 SW5       29.93R
CUT BANK       CLOUDY    35  34  96 N10       29.93R
HELENA         PTCLDY    35  26  69 W3        29.94R
BUTTE          CLOUDY    28  21  75 W6        29.93R
BOZEMAN        CLOUDY    36  31  82 W8        29.91R

WESTERN MONTANA


CITY           SKY/WX    TMP DP  RH WIND       PRES   REMARKS
MISSOULA       CLOUDY    40  31  70 CALM      30.00R
KALISPELL      NOT AVBL

NORTH DAKOTA


CITY           SKY/WX    TMP DP  RH WIND       PRES   REMARKS
WILLISTON      CLEAR     27  21  78 N5        29.97R
DICKINSON      CLOUDY    25  19  78 E6        29.91R
MINOT          CLEAR     25  21  85 SW6       29.97R
BISMARCK       CLEAR     26  24  92 CALM      29.96R

SOUTHERN SASKATCHEWAN


CITY           SKY/WX    TMP DP  RH WIND       PRES   REMARKS
REGINA         PTCLDY    28  21  74 SE9       29.97R
MOOSE JAW      CLOUDY    32  23  69 SE6       29.95R
ESTEVAN        PTCLDY    28  27  93 CALM      29.98R
SWIFT CURRENT  CLEAR     32  32 100 NW3       29.91R FOG





USA.gov is the U.S. government's official web portal to all federal, state and local government web resources and services.